Tracking 23731 objects as of 26-Sep-2021
HD Live streaming from Space Station
objects crossing your sky now

STARLINK-2496

Track STARLINK-2496 now!
10-day predictions
STARLINK-2496 is classified as:


NORAD ID: 48486
Int'l Code: 2021-040BL
Perigee: 554.2 km
Apogee: 554.7 km
Inclination: 53.1 °
Period: 95.6 minutes
Semi major axis: 6925 km
RCS: Unknown
Launch date: May 9, 2021
Source: United States (US)
Launch site: AIR FORCE EASTERN TEST RANGE (AFETR)
aabbcc
Your satellite tracking list
Your tracking list is empty




NASA's NSSDC Master Catalog

Two Line Element Set (TLE):
1 48486U 21040BL  21268.80076460 -.00003963  00000-0 -24756-3 0  9997
2 48486  53.0522 300.5114 0000385  78.2161 281.8871 15.06370076 21287
Source of the keplerian elements: AFSPC